| time (UTC) | temp C | wind direction | speed KPH | gust KPH | rain 1hr cm | rain 24hr cm | rain mn cm | humidity % | barometer mb |
| 20260507014527 | 5 | 312 | 0.0 | 6.4 | 0.00 | 0.00 | 0.00 | 50 | 1007.1 |
| 20260507013027 | 5 | 315 | 1.6 | 8.0 | 0.00 | 0.00 | 0.00 | 49 | 1007.1 |
| 20260507011533 | 6 | 316 | 6.4 | 14.5 | 0.00 | 0.00 | 0.00 | 47 | 1007.3 |
| 20260507010027 | 6 | 309 | 1.6 | 8.0 | 0.00 | 0.00 | 0.00 | 46 | 1007.2 |
| 20260507004535 | 7 | 323 | 4.8 | 14.5 | 0.00 | 0.00 | 0.00 | 45 | 1007.3 |
| 20260507003025 | 7 | 333 | 6.4 | 11.3 | 0.00 | 0.00 | 0.00 | 45 | 1007.2 |
| 20260507001524 | 7 | 360 | 9.7 | 16.1 | 0.00 | 0.00 | 0.00 | 46 | 1007.3 |
| 20260507000023 | 6 | 355 | 8.0 | 16.1 | 0.00 | 0.00 | 0.00 | 47 | 1007.3 |
| 20260506234523 | 6 | 263 | 8.0 | 30.6 | 0.00 | 0.00 | 0.00 | 47 | 1007.5 |
| 20260506233023 | 6 | 304 | 4.8 | 12.9 | 0.00 | 0.00 | 0.00 | 47 | 1007.5 |
| 20260506231522 | 6 | 355 | 8.0 | 20.9 | 0.00 | 0.00 | 0.00 | 47 | 1007.6 |
| 20260506230021 | 6 | 312 | 8.0 | 17.7 | 0.00 | 0.00 | 0.00 | 47 | 1007.5 |
| 20260506224521 | 7 | 290 | 9.7 | 17.7 | 0.00 | 0.00 | 0.00 | 47 | 1007.5 |
| 20260506223020 | 6 | 279 | 9.7 | 19.3 | 0.00 | 0.00 | 0.00 | 47 | 1007.5 |
| 20260506221520 | 7 | 346 | 8.0 | 17.7 | 0.00 | 0.00 | 0.00 | 47 | 1007.6 |
| 20260506220030 | 6 | 45 | 8.0 | 19.3 | 0.00 | 0.00 | 0.00 | 47 | 1007.7 |
| 20260506214517 | 6 | 344 | 8.0 | 16.1 | 0.00 | 0.00 | 0.00 | 47 | 1007.7 |
| 20260506213016 | 6 | 278 | 8.0 | 24.1 | 0.00 | 0.00 | 0.00 | 48 | 1007.9 |
| 20260506211516 | 6 | 355 | 6.4 | 14.5 | 0.00 | 0.00 | 0.00 | 49 | 1008.0 |
| 20260506210016 | 6 | 47 | 6.4 | 20.9 | 0.00 | 0.00 | 0.00 | 50 | 1008.1 |
| 20260506204512 | 6 | 311 | 6.4 | 24.1 | 0.00 | 0.00 | 0.00 | 51 | 1008.4 |
| 20260506203019 | 6 | 297 | 8.0 | 19.3 | 0.00 | 0.00 | 0.00 | 51 | 1008.3 |
| 20260506201509 | 5 | 355 | 8.0 | 20.9 | 0.00 | 0.00 | 0.00 | 53 | 1008.5 |
| 20260506200007 | 5 | 340 | 8.0 | 16.1 | 0.00 | 0.00 | 0.00 | 53 | 1008.5 |
| 20260506194507 | 5 | 259 | 6.4 | 14.5 | 0.00 | 0.00 | 0.00 | 53 | 1008.6 |
| 20260506193005 | 5 | 9 | 8.0 | 16.1 | 0.00 | 0.00 | 0.00 | 54 | 1008.6 |
| 20260506191505 | 5 | 316 | 9.7 | 22.5 | 0.00 | 0.00 | 0.00 | 54 | 1008.6 |
| 20260506190005 | 5 | 299 | 9.7 | 22.5 | 0.00 | 0.00 | 0.00 | 53 | 1008.6 |
| 20260506184503 | 5 | 317 | 9.7 | 19.3 | 0.00 | 0.00 | 0.00 | 53 | 1008.6 |
| 20260506183005 | 5 | 299 | 6.4 | 14.5 | 0.00 | 0.00 | 0.00 | 54 | 1008.6 |
| 20260506181502 | 5 | 301 | 9.7 | 22.5 | 0.00 | 0.00 | 0.00 | 53 | 1008.7 |
| 20260506180001 | 5 | 307 | 6.4 | 19.3 | 0.00 | 0.00 | 0.00 | 52 | 1008.7 |
| 20260506174601 | 5 | 338 | 8.0 | 17.7 | 0.00 | 0.00 | 0.00 | 52 | 1008.7 |
| 20260506173134 | 4 | 281 | 9.7 | 22.5 | 0.00 | 0.00 | 0.00 | 53 | 1008.9 |
| 20260506171558 | 4 | 289 | 9.7 | 17.7 | 0.00 | 0.00 | 0.00 | 52 | 1009.0 |
| 20260506170057 | 4 | 277 | 6.4 | 12.9 | 0.00 | 0.00 | 0.00 | 54 | 1009.0 |
| 20260506164555 | 3 | 29 | 8.0 | 14.5 | 0.00 | 0.00 | 0.00 | 54 | 1009.0 |
| 20260506163058 | 3 | 9 | 9.7 | 19.3 | 0.00 | 0.00 | 0.00 | 55 | 1009.1 |
| 20260506161556 | 3 | 9 | 9.7 | 16.1 | 0.00 | 0.00 | 0.00 | 55 | 1009.0 |
| 20260506160052 | 3 | 46 | 9.7 | 16.1 | 0.00 | 0.00 | 0.00 | 56 | 1009.0 |
| 20260506154550 | 3 | 321 | 6.4 | 14.5 | 0.00 | 0.00 | 0.00 | 55 | 1009.0 |
| 20260506153048 | 3 | 348 | 9.7 | 16.1 | 0.00 | 0.00 | 0.00 | 56 | 1008.9 |
| 20260506151548 | 3 | 329 | 6.4 | 14.5 | 0.00 | 0.00 | 0.00 | 57 | 1008.9 |
| 20260506150051 | 3 | 32 | 6.4 | 14.5 | 0.00 | 0.00 | 0.00 | 58 | 1008.9 |
| 20260506144601 | 3 | 301 | 9.7 | 14.5 | 0.00 | 0.00 | 0.00 | 58 | 1009.0 |
| 20260506143047 | 2 | 40 | 3.2 | 12.9 | 0.00 | 0.00 | 0.00 | 59 | 1008.9 |
| 20260506141546 | 2 | 317 | 6.4 | 12.9 | 0.00 | 0.00 | 0.00 | 58 | 1009.0 |
| 20260506140045 | 2 | 296 | 6.4 | 12.9 | 0.00 | 0.00 | 0.00 | 58 | 1008.9 |
| 20260506134544 | 2 | 329 | 6.4 | 14.5 | 0.00 | 0.00 | 0.00 | 58 | 1008.7 |
| 20260506133046 | 2 | 332 | 8.0 | 14.5 | 0.00 | 0.00 | 0.00 | 59 | 1008.7 |
| 20260506131542 | 2 | 264 | 6.4 | 14.5 | 0.00 | 0.00 | 0.00 | 60 | 1008.6 |
| 20260506130041 | 2 | 292 | 6.4 | 11.3 | 0.00 | 0.00 | 0.00 | 64 | 1008.4 |
| 20260506124540 | 2 | 311 | 6.4 | 12.9 | 0.00 | 0.00 | 0.00 | 65 | 1008.2 |
| 20260506123037 | 1 | 316 | 3.2 | 9.7 | 0.00 | 0.00 | 0.00 | 68 | 1008.1 |
| 20260506121534 | 1 | 329 | 4.8 | 11.3 | 0.00 | 0.00 | 0.00 | 69 | 1007.8 |
| 20260506120033 | 1 | 306 | 6.4 | 9.7 | 0.00 | 0.00 | 0.00 | 71 | 1007.7 |
| 20260506114531 | 0 | 295 | 3.2 | 11.3 | 0.00 | 0.00 | 0.00 | 73 | 1007.4 |
| 20260506113031 | 0 | 295 | 1.6 | 9.7 | 0.00 | 0.00 | 0.00 | 72 | 1007.2 |
| 20260506111528 | 0 | 295 | 0.0 | 8.0 | 0.00 | 0.00 | 0.00 | 71 | 1007.0 |
| 20260506110029 | 0 | 292 | 3.2 | 11.3 | 0.00 | 0.00 | 0.00 | 70 | 1007.2 |
| 20260506104529 | 0 | 248 | 4.8 | 9.7 | 0.00 | 0.00 | 0.00 | 70 | 1007.3 |
| 20260506103027 | 0 | 319 | 6.4 | 12.9 | 0.00 | 0.00 | 0.00 | 69 | 1007.3 |
| 20260506101523 | 0 | 257 | 4.8 | 11.3 | 0.00 | 0.00 | 0.00 | 68 | 1007.0 |
| 20260506100020 | 1 | 273 | 3.2 | 11.3 | 0.00 | 0.00 | 0.00 | 67 | 1006.8 |
| 20260506094517 | 1 | 277 | 1.6 | 9.7 | 0.00 | 0.00 | 0.00 | 66 | 1006.9 |
| 20260506093016 | 1 | 328 | 3.2 | 8.0 | 0.00 | 0.00 | 0.00 | 65 | 1006.7 |
| 20260506091518 | 1 | 333 | 1.6 | 4.8 | 0.00 | 0.00 | 0.00 | 64 | 1006.8 |
| 20260506090021 | 1 | 355 | 1.6 | 6.4 | 0.00 | 0.00 | 0.00 | 64 | 1006.9 |
| 20260506084530 | 1 | 355 | 1.6 | 3.2 | 0.00 | 0.00 | 0.00 | 63 | 1006.5 |
| 20260506083010 | 1 | 355 | 0.0 | 6.4 | 0.00 | 0.00 | 0.00 | 63 | 1006.4 |
| 20260506081512 | 1 | 355 | 1.6 | 6.4 | 0.00 | 0.00 | 0.00 | 63 | 1006.4 |
| 20260506073005 | 1 | 360 | 1.6 | 9.7 | 0.00 | 0.00 | 0.00 | 61 | 1006.2 |
| 20260506071502 | 1 | 10 | 4.8 | 14.5 | 0.00 | 0.00 | 0.00 | 62 | 1006.0 |
| 20260506061559 | 2 | 11 | 6.4 | 12.9 | 0.00 | 0.00 | 0.00 | 58 | 1006.0 |
| 20260506044548 | 3 | 39 | 4.8 | 11.3 | 0.00 | 0.00 | 0.00 | 55 | 1005.4 |
| 20260506043041 | 3 | 333 | 3.2 | 11.3 | 0.00 | 0.00 | 0.00 | 55 | 1005.5 |
| 20260506041549 | 4 | 325 | 6.4 | 14.5 | 0.00 | 0.00 | 0.00 | 55 | 1005.3 |
| 20260506040040 | 4 | 313 | 6.4 | 16.1 | 0.00 | 0.00 | 0.00 | 55 | 1005.4 |
| 20260506034539 | 5 | 313 | 6.4 | 12.9 | 0.00 | 0.00 | 0.00 | 55 | 1005.1 |
| 20260506033038 | 5 | 37 | 4.8 | 11.3 | 0.00 | 0.00 | 0.00 | 54 | 1005.1 |
| 20260506031534 | 5 | 23 | 4.8 | 12.9 | 0.00 | 0.00 | 0.00 | 52 | 1005.0 |
| 20260506030034 | 5 | 255 | 4.8 | 14.5 | 0.00 | 0.00 | 0.00 | 51 | 1004.9 |
| 20260506024536 | 6 | 51 | 3.2 | 12.9 | 0.00 | 0.00 | 0.00 | 50 | 1004.6 |
| 20260506023030 | 6 | 22 | 9.7 | 25.7 | 0.00 | 0.00 | 0.00 | 48 | 1004.2 |
| 20260506021528 | 6 | 321 | 8.0 | 14.5 | 0.00 | 0.00 | 0.00 | 47 | 1004.1 |
| 20260506020026 | 6 | 23 | 8.0 | 17.7 | 0.00 | 0.00 | 0.00 | 47 | 1003.9 |